Flag for South Korea Weather past 2 weeks in Incheon, South Korea

Now
52 °F

Clear.


Feels Like: 47 °F
Forecast: 52 / 62 °F
Wind: 15 mph from Northeast

Location: Incheon International Airport

Current Time: Oct 22, 2014 at 4:23:20 AM

Latest Report: Oct 22, 2014 at 4:00 AM


Visibility: 10 mi

Pressure: 30.07 "Hg

Humidity: 77%

Dew point: 45 °F

Location of IncheonLocation

Historic Weather in Incheon — Graph

°F

Incheon temperature yesterday

Maximum temperature yesterday: 59 °F (at 12:00 AM)
Minimum temperature yesterday: 54 °F (at 8:00 PM)
Average temperature yesterday: 57 °F

Past Weeks' High & Low Weather Summary

 TemperatureHumidityPressure
High81 °F (Oct 10, 3:00 PM)94% (Oct 10, 2:00 AM)30.27 "Hg (Oct 10, 2:00 AM)
Low46 °F (Oct 17, 5:00 AM)19% (Oct 16, 1:00 PM)29.86 "Hg (Oct 13, 4:30 AM)
Average61 °F61%30.11 "Hg
* Reported Oct 7 3:00 AM — Oct 22 3:00 AM, Incheon, Weather by CustomWeather, © 2014

Note: Actual official high and low records may vary slightly from our data, if they occured in-between our weather recording intervals... More about our weather records

Advertising

Incheon weather history for previous 24 hours

 ConditionsComfort  
Time TempWeatherWind HumidityBarometerVisibility
3:00 AM
Oct 22
52 °FClear.12 mph77%30.07 "Hg10 mi
2:30 AM52 °FClear.14 mph77%30.07 "Hg10 mi
2:00 AM54 °FPassing clouds.10 mph72%30.07 "HgN/A
1:30 AM54 °FPassing clouds.14 mph72%30.07 "HgN/A
1:00 AM54 °FPassing clouds.17 mph72%30.07 "HgN/A
12:30 AM54 °FPassing clouds.16 mph72%30.07 "HgN/A
12:00 AM54 °FPassing clouds.17 mph77%30.07 "HgN/A
11:30 PM
Oct 21
54 °FPassing clouds.16 mph77%30.07 "HgN/A
11:00 PM54 °FPassing clouds.15 mph77%30.07 "HgN/A
10:30 PM54 °FPassing clouds.15 mph77%30.07 "HgN/A
10:00 PM54 °FPassing clouds.14 mph77%30.07 "HgN/A
9:30 PM54 °FPassing clouds.16 mph77%30.04 "HgN/A
9:00 PM54 °FPassing clouds.16 mph82%30.07 "HgN/A
8:30 PM54 °FPassing clouds.12 mph82%30.04 "HgN/A
8:00 PM54 °FPartly cloudy.14 mph88%30.04 "HgN/A
7:30 PM55 °FMostly cloudy.14 mph82%30.04 "HgN/A
7:00 PM55 °FMostly cloudy.14 mph82%30.04 "HgN/A
6:30 PM55 °FMore clouds than sun.9 mph77%30.01 "HgN/A
6:00 PM55 °FMore clouds than sun.7 mph82%30.01 "HgN/A
5:30 PM57 °FLight rain. More clouds than sun.7 mph82%30.01 "HgN/A
5:00 PM55 °FLight rain. Mostly cloudy.10 mph88%30.01 "HgN/A
4:30 PM55 °FLight rain. Mostly cloudy.13 mph88%30.01 "HgN/A
4:00 PM57 °FLight rain. Mostly cloudy.13 mph82%30.01 "HgN/A
3:30 PM57 °FLight rain. Mostly cloudy.12 mph88%30.01 "Hg5 mi
3:00 PM57 °FLight rain. Mostly cloudy.8 mph82%30.01 "Hg5 mi
2:30 PM59 °FLight rain. More clouds than sun.14 mph82%30.04 "Hg5 mi
2:00 PM59 °FLight rain. More clouds than sun.12 mph82%30.01 "HgN/A
1:30 PM59 °FLight rain. Mostly cloudy.13 mph82%30.01 "Hg5 mi
1:00 PM59 °FLight rain. Mostly cloudy.12 mph88%30.04 "Hg4 mi
12:30 PM59 °FLight rain. Mostly cloudy.15 mph88%30.04 "Hg4 mi
12:00 PM57 °FLight rain. Mostly cloudy.14 mph88%30.04 "Hg4 mi
11:30 AM57 °FLight rain. Mostly cloudy.12 mph88%30.07 "Hg4 mi
11:00 AM59 °FLight rain. Mostly cloudy.13 mph82%30.04 "Hg4 mi
10:30 AM59 °FLight rain. Mostly cloudy.14 mph82%30.04 "Hg4 mi
10:00 AM59 °FLight rain. Mostly cloudy.13 mph82%30.04 "Hg4 mi
9:30 AM59 °FLight rain. Fog.12 mph88%30.04 "Hg3 mi
9:00 AM59 °FLight rain. Fog.13 mph88%30.04 "Hg2 mi
8:30 AM59 °FLight rain. Fog.9 mph88%30.04 "Hg2 mi
8:00 AM59 °FLight rain. Fog.12 mph88%30.01 "Hg2 mi
7:30 AM59 °FLight rain. Fog.10 mph88%29.98 "Hg1 mi
7:00 AM59 °FLight rain. Fog.10 mph88%29.98 "Hg1 mi
6:30 AM59 °FLight rain. Fog.10 mph88%29.98 "Hg1 mi
6:00 AM59 °FLight rain. Fog.9 mph94%29.98 "Hg1 mi
5:30 AM59 °FLight rain. Fog.8 mph94%29.98 "Hg1 mi
5:00 AM59 °FLight rain. Fog.8 mph94%29.98 "Hg1 mi
4:30 AM59 °FLight rain. Fog.8 mph94%29.98 "Hg1 mi
4:00 AM59 °FMixture of precip. Fog.7 mph94%30.01 "Hg1 mi
Weather by CustomWeather, © 2014

See weather overviewHow to use our weather pages